EW1895 Weather Reports


time (UTC)temp
C
wind
direction
speed
KPH
gust
KPH
rain 1hr
cm
rain 24hr
cm
rain mn
cm
humidity
%
barometer
mb
20260506073056 17 223 0.0 4.8 0.00 0.00 0.00 71 1011.8
20260506071555 18 188 0.0 3.2 0.00 0.00 0.00 70 1011.7
20260506061556 18 198 0.0 4.8 0.00 0.00 0.00 68 1012.0
20260506044541 20 191 0.0 4.8 0.00 0.00 0.00 61 1012.6
20260506043039 20 210 0.0 4.8 0.00 0.00 0.00 60 1012.6
20260506041539 20 188 0.0 3.2 0.00 0.00 0.00 59 1012.6
20260506040041 20 233 0.0 6.4 0.00 0.00 0.00 58 1012.6
20260506034536 21 148 0.0 6.4 0.00 0.00 0.00 58 1012.6
20260506033035 21 267 0.0 6.4 0.00 0.00 0.00 57 1012.5
20260506031535 21 124 0.0 3.2 0.00 0.00 0.00 57 1012.5
20260506030032 21 223 0.0 6.4 0.00 0.00 0.00 56 1012.5
20260506024531 21 105 0.0 6.4 0.00 0.00 0.00 55 1012.5
20260506023031 21 221 0.0 6.4 0.00 0.00 0.00 55 1012.6
20260506021532 21 180 0.0 6.4 0.00 0.00 0.00 55 1012.6
20260506020031 21 254 0.0 6.4 0.00 0.00 0.00 54 1012.5
20260506014525 21 126 0.0 3.2 0.00 0.00 0.00 53 1012.4
20260506013022 21 261 0.0 3.2 0.00 0.00 0.00 52 1012.3
20260506011518 22 135 0.0 6.4 0.00 0.00 0.00 50 1012.1
20260506010033 22 117 0.0 1.6 0.00 0.00 0.00 49 1012.0
20260506004515 22 297 0.0 1.6 0.00 0.00 0.00 48 1011.9
20260506003011 23 103 0.0 3.2 0.00 0.00 0.00 47 1011.7
20260506001508 23 287 0.0 3.2 0.00 0.00 0.00 45 1011.6
20260506000008 23 161 0.0 4.8 0.00 0.00 0.00 43 1011.4
20260505234510 24 205 0.0 3.2 0.00 0.00 0.00 41 1011.4
20260505233004 24 137 0.0 1.6 0.00 0.00 0.00 40 1011.3
20260505231600 25 110 0.0 3.2 0.00 0.00 0.00 38 1011.5
20260505224556 25 163 0.0 3.2 0.00 0.00 0.00 36 1011.5
20260505223053 26 342 0.0 8.0 0.00 0.00 0.00 35 1011.4
20260505221551 26 209 0.0 16.1 0.00 0.00 0.00 35 1011.5
20260505220050 26 259 0.0 6.4 0.00 0.00 0.00 33 1011.3
20260505214604 27 237 0.0 8.0 0.00 0.00 0.00 33 1011.1
20260505213058 27 239 0.0 17.7 0.00 0.00 0.00 31 1011.0
20260505211548 27 117 0.0 14.5 0.00 0.00 0.00 31 1011.0
20260505210056 28 123 0.0 4.8 0.00 0.00 0.00 30 1011.0
20260505204556 28 215 0.0 9.7 0.00 0.00 0.00 29 1011.2
20260505203053 29 239 0.0 12.9 0.00 0.00 0.00 28 1010.9
20260505201550 30 192 0.0 12.9 0.00 0.00 0.00 28 1011.1
20260505200059 30 226 0.0 6.4 0.00 0.00 0.00 26 1011.2
20260505194549 30 320 3.2 19.3 0.00 0.00 0.00 26 1011.4
20260505193049 30 284 1.6 16.1 0.00 0.00 0.00 26 1011.7
20260505191543 30 218 1.6 19.3 0.00 0.00 0.00 27 1011.7
20260505190044 30 113 0.0 8.0 0.00 0.00 0.00 27 1012.0
20260505184541 30 279 3.2 8.0 0.00 0.00 0.00 27 1012.3
20260505183039 30 209 0.0 12.9 0.00 0.00 0.00 28 1012.4
20260505181541 30 140 1.6 16.1 0.00 0.00 0.00 30 1012.6
20260505180100 29 182 1.6 12.9 0.00 0.00 0.00 31 1012.8
20260505174556 30 239 3.2 11.3 0.00 0.00 0.00 29 1012.9
20260505173043 30 201 0.0 4.8 0.00 0.00 0.00 31 1013.0
20260505171533 29 198 1.6 8.0 0.00 0.00 0.00 33 1013.1
20260505170034 29 90 0.0 8.0 0.00 0.00 0.00 33 1013.4
20260505164531 28 234 0.0 6.4 0.00 0.00 0.00 34 1013.5
20260505163029 28 45 1.6 12.9 0.00 0.00 0.00 36 1013.7
20260505161528 28 284 0.0 4.8 0.00 0.00 0.00 38 1013.9
20260505153021 26 313 0.0 6.4 0.00 0.00 0.00 42 1014.6
20260505151518 26 140 0.0 8.0 0.00 0.00 0.00 44 1014.5
20260505124509 18 306 0.0 1.6 0.00 0.00 0.00 63 1014.6
20260505123008 17 149 0.0 6.4 0.00 0.00 0.00 66 1014.9
20260505121509 16 214 0.0 1.6 0.00 0.00 0.00 70 1014.6
20260505120006 15 276 0.0 0.0 0.00 0.00 0.00 73 1014.6
20260505114506 15 306 0.0 6.4 0.00 0.00 0.00 74 1014.4
20260505113003 15 199 0.0 3.2 0.00 0.00 0.00 75 1014.2
20260505111504 14 249 0.0 0.0 0.00 0.00 0.00 76 1014.2
20260505101556 14 240 0.0 0.0 0.00 0.00 0.00 73 1013.6
20260505100055 14 269 0.0 0.0 0.00 0.00 0.00 73 1013.5
20260505094553 15 272 0.0 1.6 0.00 0.00 0.00 72 1013.5
20260505093052 15 298 0.0 0.0 0.00 0.00 0.00 71 1013.5
20260505091607 15 169 0.0 1.6 0.00 0.00 0.00 71 1013.5
20260505090051 15 234 0.0 4.8 0.00 0.00 0.00 71 1013.4
20260505084550 15 252 0.0 1.6 0.00 0.00 0.00 70 1013.4
20260505083049 15 215 0.0 1.6 0.00 0.00 0.00 69 1013.5
20260505081557 15 209 0.0 0.0 0.00 0.00 0.00 67 1013.3
20260505080058 15 131 0.0 3.2 0.00 0.00 0.00 66 1013.4